{"data":{"norad_id":57108,"epoch":"2026-05-25T04:47:33.398304Z","epoch_age_seconds":58081,"freshness":"FRESH","line1":"1 57108U 23090H   26145.19969211 -.00000336  00000+0 -27040-5 0  9992","line2":"2 57108  43.0025 209.4599 0001219 270.5670  89.5042 15.27575210162030","mean_motion":15.2757521,"eccentricity":0.0001219,"inclination_deg":43.0025,"raan_deg":209.4599,"arg_perigee_deg":270.567,"mean_anomaly_deg":89.5042,"bstar":-2.704e-6,"rev_number":16203,"period_min":94.26704430481,"perigee_km":482.2270587268,"apogee_km":483.89981939385,"semimajor_km":6861.2004390603,"source":"CELESTRAK","updated_at":"2026-05-25T13:38:18.240621Z"}}